Regional Weather Roundup
Issued by NWS

Home | Current Version | Previous Version | Graphics & Text | Print | Product List | Glossary On
Versions: 1 2 3 4 5 6 7 8 9 10 11 12 13 14 15 16 17 18 19 20 21 22 23 24 25 26 27 28 29 30 31 32 33 34 35 36 37 38 39 40 41 42 43 44 45 46 47 48 49 50
000
ASUS43 KDMX 182007
RWRIA

WEATHER ROUNDUP FOR IOWA
NATIONAL WEATHER SERVICE DES MOINES IA
200 PM CST THU DEC 18 2014

NOTE: "FAIR" INDICATES FEW OR NO CLOUDS BELOW 12,000 FEET WITH NO
SIGNIFICANT WEATHER AND/OR OBSTRUCTIONS TO VISIBILITY.

* - THESE STATIONS ARE NOT NWS STATIONS...THUS NOT UNDER NWS
QUALITY CONTROL.  THEY ALSO DO NOT REPORT WEATHER SUCH
AS PRECIPITATION OR FOG.

IAZ001>003-012>014-020>022-031>034-043>046-182100-
   NORTHWEST IOWA

CITY           SKY/WX    TMP DP  RH WIND       PRES   REMARKS
CARROLL *      CLOUDY    28  21  74 S5        30.20F WCI  23
CHEROKEE *     CLOUDY    27  23  86 S3        30.20S
DENISON *      CLOUDY    30  25  80 S5        30.18F WCI  25
LE MARS *      CLOUDY    28  23  80 S7        30.20F WCI  21
ORANGE CITY *  MOSUNNY   28  23  80 CALM      30.18S
SHELDON *      CLOUDY    27  23  86 S6        30.17F WCI  20
SIOUX CITY     CLOUDY    30  22  72 CALM      30.21S
SPENCER        CLOUDY    26  19  74 SE7       30.19F WCI  18
STORM LAKE *   CLOUDY    27  23  86 S7        30.19S WCI  19
$$

IAZ055>058-069>071-079>083-090>094-182100-
   SOUTHWEST IOWA

CITY           SKY/WX    TMP DP  RH WIND       PRES   REMARKS
ATLANTIC *     CLOUDY    28  25  86 CALM      30.21S
AUDUBON *      SUNNY     30  21  69 S3        30.20F
CLARINDA *     CLOUDY    30  27  86 CALM      30.23F
COUNCIL BLFS * CLOUDY    30  28  93 S7        30.19S WCI  23
CRESTON *      CLOUDY    28  27  93 S5        30.20F WCI  23
HARLAN  *      CLOUDY    30  28  93 S5        30.23F WCI  25
LAMONI         CLOUDY    29  25  85 VRB3      30.21F
RED OAK *      CLOUDY    30  27  86 S5        30.21F WCI  25
SHENANDOAH *   CLOUDY    30  28  93 CALM      30.22F
$$

IAZ047>049-059>061-072>074-084-182100-
   CENTRAL IOWA

CITY           SKY/WX    TMP DP  RH WIND       PRES   REMARKS
AMES           CLOUDY    26  18  71 CALM      30.23F
ANKENY *       CLOUDY    28  19  69 CALM      30.23F
CHARITON *     CLOUDY    28  25  86 CALM      30.22F
DES MOINES     FLURRIES  31  20  63 CALM      30.23F
GRINNELL*      LGT SNOW  27  21  80 CALM      30.23F
KNOXVILLE *    MOSUNNY   27  21  80 CALM      30.23S
MARSHALLTOWN   CLOUDY    23  18  81 CALM      30.23F
PELLA *        MOSUNNY   28  23  80 CALM      30.26S
PERRY *        CLOUDY    28  23  80 S3        30.22F
$$

IAZ004>006-015-016-023>025-035-036-182100-
   NORTH CENTRAL IOWA

CITY           SKY/WX    TMP DP  RH WIND       PRES   REMARKS
ALGONA *       CLOUDY    23  19  86 SE3       30.22F
CLARION *      CLOUDY    23  21  93 CALM      30.22F
ESTHERVILLE    CLOUDY    22  17  81 SE3       30.19F
FORT DODGE *   CLOUDY    25  18  74 CALM      30.23S
MASON CITY     CLOUDY    22  17  81 CALM      30.24F
FOREST CITY *  CLOUDY    25  18  74 CALM      30.22F
IOWA FALLS *   CLOUDY    25  18  74 CALM      30.23F
$$

IAZ007>011-017>019-026>030-037>042-050>054-066-182100-
   NORTHEAST IOWA

CITY           SKY/WX    TMP DP  RH WIND       PRES   REMARKS
CEDAR RAPIDS   CLOUDY    25  18  74 NW6       30.23F WCI  18
CHARLES CITY * CLOUDY    21  18  86 CALM      30.24F
CLINTON *      PTSUNNY   25  18  74 NW5       30.27F WCI  19
DECORAH *      CLOUDY    23  18  80 E3        30.22S
DUBUQUE        MOSUNNY   23  17  78 CALM      30.22F
MONTICELLO *   PTSUNNY   25  19  80 VRB3      30.24F
OELWEIN *      CLOUDY    25  18  74 CALM      30.24S
WATERLOO       CLOUDY    23  17  78 CALM      30.25F
$$

IAZ064-065-067-068-078-182100-
   EAST CENTRAL IOWA

CITY           SKY/WX    TMP DP  RH WIND       PRES   REMARKS
DAVENPORT      PTSUNNY   25  16  68 NW5       30.25F WCI  19
IOWA CITY      CLOUDY    26  18  71 W3        30.27S
MT. PLEASANT * CLOUDY    27  21  80 CALM      30.25F
MUSCATINE *    CLOUDY    30  19  64 CALM      30.26F
QUAD CITIES    PTSUNNY   30  17  58 NW5       30.24F WCI  25
$$

IAZ062-063-075>077-085>089-095>099-182100-
   SOUTHEAST IOWA

CITY           SKY/WX    TMP DP  RH WIND       PRES   REMARKS
BURLINGTON     CLOUDY    28  20  71 CALM      30.24F
FAIRFIELD *    LGT SNOW  27  19  74 CALM      30.25S
FORT MADISON * CLOUDY    28  25  86 CALM      30.25F
KEOKUK *       CLOUDY    28  25  86 CALM      30.23F
OSKALOOSA *    CLOUDY    27  21  80 CALM      30.24F FOG
CENTERVILLE *  CLOUDY    28  25  86 NE3       30.23F
OTTUMWA        CLOUDY    27  21  78 NE3       30.23F
WASHINGTON *   PTSUNNY   28  21  74 CALM      30.25S
$$

ABBREVIATIONS USED IN REMARKS
   TC - TEMPERATURES IN CELSIUS
  WCI - WIND CHILL INDEX
   HX - HEAT INDEX
  VSB - VISIBILITY
$$



USA.gov is the U.S. government's official web portal to all federal, state and local government web resources and services.